Location: Buckland
(65.9785°N, 161.1281°W)
Time: 01:53:37
(UTC+00:00)

Vanguard 2 Rocket - Pass Details

Date: 28 November 2020
Orbit: 554 x 3325 km, 32.9° (Epoch: 22 January)

Event Time Altitude Azimuth Distance (km) Brightness Sun altitude
Rises 17:54:02 0° 193° (SSW) 7,295 11.7 -11.7°
Reaches altitude 10° 18:05:29 10° 165° (SSE) 6,162 11.8 -10.7°
Maximum altitude 18:09:13 11° 154° (SSE) 5,956 12.0 -10.3°
Drops below altitude 10° 18:12:48 10° 142° (SE) 5,868 12.3 -10.0°
Sets 18:22:22 0° 113° (ESE) 6,242 13.2 -9.2°
